Dewpoint
11 10 11 10 8 4 1 -2 -5 -6 -4 -2 0 1 1 1 0 -0 -0 -0 1 4 5 5 4 3 1 4 3 1 1 2 -2 -0 -0 -1 -1 -2 -3 -5 -7 -7 -8 -9 -8 -10 -11
8 10 11 11 10 9 5 1 -2 -4 -5 -5 -3 -2 -1 -1 -1 -1 -1 1 4 6 6 5 7 6 8 7 -0 2 4 3 2 0 1 2 2 1 -1 -2 -3 -5 -6 -7 -7 -8 -9
7 8 9 11 10 10 9 5 1 -1 -2 -4 -4 -3 -3 -2 -1 0 2 4 6 6 6 6 8 8 9 7 1 5 6 5 4 5 4 3 4 2 -1 -1 -1 -3 -3 -5 -5 -7 -8
8 7 7 9 10 11 10 8 4 2 1 -1 -2 -1 -0 2 3 5 6 7 7 7 7 7 6 9 8 3 2 6 6 5 6 6 5 5 5 4 1 -1 -0 -0 -1 -0 -5 -7 -8
8 7 7 7 8 10 10 10 8 3 4 2 1 1 2 3 5 7 8 8 9 9 9 9 7 8 7 6 6 6 6 5 5 5 5 5 4 3 1 2 2 1 3 0 -2 -6 -7
6 7 7 7 7 8 8 10 10 6 4 5 4 4 6 7 7 9 9 9 8 9 9 8 7 6 6 5 4 5 2 3 5 2 2 1 2 2 1 2 5 2 1 0 -0 -4 -5
4 6 6 7 7 7 7 8 10 9 8 4 6 5 8 9 9 9 9 9 9 8 7 6 5 5 4 4 3 3 2 2 0 -1 1 -0 1 3 2 1 1 1 1 1 -0 -2 -2
2 4 5 7 7 7 7 7 9 9 8 9 6 7 8 7 7 9 9 9 8 6 6 6 5 5 5 4 3 3 1 0 0 2 0 2 3 1 0 0 1 1 1 1 -0 -2 -1
2 3 5 7 7 7 6 7 9 9 7 8 7 7 7 8 8 8 8 8 7 6 6 4 4 5 4 4 4 3 2 0 0 1 1 2 1 -0 -0 0 2 1 1 2 2 -0 -1
2 4 5 6 6 5 6 7 7 9 10 9 8 8 8 8 8 8 8 8 7 6 8 6 4 3 4 3 3 3 2 2 1 2 1 1 -1 -0 -0 1 1 3 1 2 1 2 4
2 4 5 5 5 5 5 6 7 8 10 9 9 8 8 7 8 8 7 7 7 6 10 1 2 1 2 3 1 1 1 2 3 2 1 2 1 1 2 1 0 2 0 2 1 2 3
2 4 4 5 5 7 6 7 7 8 9 9 8 8 8 8 8 7 7 7 6 7 9 3 0 0 2 2 1 -0 0 1 1 2 1 2 -0 -0 -1 -2 -2 -2 -1 0 0 1 6
2 4 5 5 6 5 6 6 7 8 9 8 9 8 8 7 6 7 6 5 6 9 0 1 1 -1 1 2 2 -0 1 2 3 5 5 2 2 1 -1 0 -1 -2 0 4 6 7 7
2 2 4 5 6 7 7 7 8 8 8 8 8 7 7 6 5 6 5 5 8 3 1 -5 -2 -1 1 -0 0 -0 0 2 1 0 1 2 4 1 0 1 2 0 1 4 6 8 5
2 1 2 5 6 7 7 7 7 7 7 7 6 6 6 5 6 5 5 6 6 1 -1 -0 -4 -0 0 -2 -1 1 1 0 -0 -0 2 1 1 -2 -2 -2 0 3 3 1 6 5 8
2 2 3 3 5 6 6 6 6 6 6 5 5 5 5 5 5 4 5 6 3 -3 -6 -2 -0 -3 -1 -2 -1 -1 -0 -2 -1 -1 -2 0 2 -2 -3 -4 -3 -0 -1 5 6 8 7
3 3 2 5 4 5 5 5 5 4 4 4 4 4 4 5 5 5 5 5 -0 -4 -6 -5 -3 -3 -5 -4 -3 -3 -3 -3 -2 -2 -3 -1 1 -1 -2 -1 -2 -2 0 2 3 6 7
3 3 3 3 4 3 1 2 2 3 4 4 3 1 3 3 4 1 5 4 -1 -2 -4 -5 -4 -4 -5 -6 -5 -4 -4 1 -1 -3 -1 -2 1 1 -0 -3 -3 -1 2 2 8 5 6
1 1 2 2 2 2 2 2 2 1 1 3 2 0 1 3 3 3 3 3 1 -2 -2 -4 -4 -5 -8 -6 -3 -5 0 0 -2 -4 -1 -2 -1 1 -2 -5 -4 -3 -3 -1 -1 3 3
1 1 1 1 0 0 -1 -1 0 1 2 3 1 2 0 0 0 3 4 4 2 -1 -4 -5 -5 -7 -5 -4 -6 -5 -1 -1 -3 -3 -5 -4 -2 -1 0 -5 -3 -2 -3 -3 0 4 2
-3 -3 -3 -3 -2 -2 -3 -3 -2 -1 1 1 1 2 1 2 1 2 3 3 1 1 0 -3 -1 -1 -4 -2 -4 -4 -3 1 -3 -2 -3 -3 2 1 -1 -3 -4 -5 -6 -6 -4 -3 1
-5 -5 -5 -5 -5 -6 -6 -5 -4 0 1 0 -1 1 -1 -0 2 2 3 3 2 -0 1 0 1 -1 -3 -1 -2 1 -3 -1 -1 -2 -2 -2 2 3 1 -1 -3 -3 -6 -8 -9 -9 -7
-6 -8 -5 -5 -5 -6 -7 -7 -3 -1 -1 -2 -2 -3 -2 -1 -1 2 3 2 3 0 -0 -0 -0 -1 -0 -1 -3 -5 -4 -2 -3 0 -0 -2 1 0 0 -4 -3 0 -4 -5 -7 -8 -6
-7 -6 -8 -12 -7 -5 -7 -9 -7 -1 -1 -5 -5 -6 -3 -0 1 0 -2 -0 1 -1 -3 -6 -1 -3 -3 -6 -9 -10 -11 -11 -10 -8 -9 -5 -2 -1 -1 -6 -1 -8 -13 -13 -12 -12 -12
-5 -5 -6 -11 -11 -8 -8 -10 -10 -4 -5 -5 -7 -6 -3 0 -4 -0 0 -0 -2 -3 -3 -4 -5 -3 -7 -9 -4 -5 -8 -10 -11 -13 -12 -10 -8 -2 -2 -5 -10 -12 -15 -13 -11 -11 -13
-7 -8 -9 -11 -13 -13 -13 -12 -11 -7 -7 -6 -7 -8 -5 0 -3 -7 -7 -9 -4 -7 -6 -9 -8 -6 -8 -4 -3 -6 -9 -10 -11 -12 -14 -14 -8 -4 -3 -3 -5 -7 -13 -15 -11 -4 -10
-8 -10 -12 -13 -13 -12 -13 -15 -15 -14 -11 -5 -12 -10 -4 -2 -9 -10 -10 -8 -9 -9 -5 -8 -8 -8 -9 -3 -2 -6 -9 -15 -12 -10 -11 -7 -4 -3 -4 -3 -7 -10 -12 -12 -3 -2 -2
-6 -5 -7 -10 -13 -13 -12 -12 -12 -13 -8 -4 -12 -6 -4 -2 -7 -7 -8 -10 -11 -11 -6 -9 -6 -5 -5 -3 -5 -6 -5 -8 -9 -6 -11 -9 -7 -4 -2 -2 -1 -11 -8 -4 -2 -3 -3
-6 -4 -5 -6 -10 -9 -8 -9 -10 -9 -4 -4 -6 -8 -5 -4 -6 -6 -7 -8 -9 -10 -10 -7 -6 -6 -4 -3 -5 -7 -4 -5 -8 -4 -9 -5 -6 -4 -7 -4 -6 -8 -9 -8 -4 -3 -4
Wind_Speed
42 42 39 39 37 36 36 36 36 35 34 32 31 29 27 25 23 21 19 18 17 17 17 17 17 19 18 9 22 18 17 18 17 10 9 9 11 15 12 13 12 14 17 24 25 26 23
44 44 40 43 41 39 37 37 37 36 35 34 32 30 28 27 24 22 20 18 17 17 17 17 18 19 12 17 14 9 14 11 7 8 10 10 13 15 16 17 17 19 26 24 23 24 24
45 45 47 40 44 42 40 38 38 37 35 34 32 31 29 27 25 22 20 18 18 19 18 17 15 15 18 26 15 12 14 14 11 10 12 11 12 12 14 17 15 16 19 18 22 23 22
41 43 44 46 41 44 44 42 39 38 36 35 33 31 29 27 25 21 19 19 19 19 18 17 17 17 17 25 23 22 20 21 21 22 19 16 14 15 18 18 24 19 20 19 18 21 26
42 40 41 45 47 42 42 46 42 40 38 35 33 31 29 26 24 21 20 20 18 19 19 18 12 10 17 9 15 16 18 22 18 18 18 14 13 18 15 13 12 10 15 20 21 17 17
51 44 40 42 44 46 44 40 47 43 40 37 34 32 30 27 25 23 21 20 19 20 22 17 13 7 18 18 6 6 5 7 13 9 10 12 11 10 11 13 15 14 16 19 18 15 15
52 49 43 41 42 40 40 43 49 42 33 41 37 32 31 28 28 26 24 19 12 8 16 18 10 10 9 5 3 9 9 6 9 10 11 17 10 15 18 18 20 17 21 23 21 20 20
48 49 46 42 42 41 38 39 40 41 35 39 41 38 37 34 31 28 23 26 15 4 8 24 27 25 26 16 7 8 10 9 13 14 15 12 16 16 18 20 20 20 18 17 19 19 18
45 46 45 42 42 44 40 38 43 45 40 38 45 42 39 34 36 29 27 32 21 14 5 18 25 28 29 26 24 23 16 16 16 14 15 19 13 18 13 17 19 16 15 19 21 21 22
44 44 45 45 44 40 46 42 41 45 44 44 44 43 41 36 32 30 30 28 21 9 2 7 16 24 28 21 17 22 25 22 17 18 18 17 19 19 17 15 13 18 15 17 19 17 14
42 42 42 41 44 43 44 46 43 42 46 45 45 44 43 35 36 37 32 27 18 11 4 10 15 7 14 21 10 10 13 23 18 17 13 16 13 14 15 16 17 21 19 16 12 15 18
41 39 41 39 39 42 40 45 43 43 42 50 44 44 39 40 32 31 27 22 16 4 8 8 10 12 16 24 12 10 9 10 8 18 20 22 23 16 13 8 10 10 12 12 14 13 13
41 39 37 37 39 41 40 41 41 39 44 43 44 42 39 34 34 28 31 24 3 5 7 12 11 15 18 12 15 12 12 11 10 6 15 19 25 24 20 15 11 9 8 5 4 4 10
40 38 36 38 37 41 41 42 43 44 44 43 41 43 44 27 31 35 36 4 6 12 14 3 12 16 16 14 12 16 12 12 16 14 8 8 15 25 21 25 16 15 15 7 6 6 11
39 35 34 39 46 41 42 40 38 39 42 45 47 48 37 33 33 38 25 5 11 14 15 8 6 12 17 15 8 15 16 15 15 16 7 5 12 8 1 6 16 17 14 13 14 11 4
35 28 23 44 38 38 39 43 42 44 42 41 41 24 29 37 34 39 9 8 13 14 6 18 21 16 16 19 12 13 15 14 12 2 5 3 5 3 6 1 5 12 3 7 4 4 9
31 27 28 39 44 34 44 43 36 30 33 36 36 16 22 28 32 18 6 10 14 4 3 4 16 17 19 15 19 17 12 10 10 10 9 9 8 5 8 6 9 7 12 6 5 5 3
40 25 34 26 33 32 25 21 27 29 32 40 14 3 22 27 4 3 8 9 17 6 5 5 5 11 13 17 17 16 18 10 10 7 10 1 4 11 13 6 2 2 7 7 4 9 7
23 24 30 30 30 29 26 25 23 22 22 22 12 5 10 28 6 5 5 16 17 13 11 8 9 11 12 15 9 14 15 10 6 6 4 2 4 7 10 11 10 9 6 12 13 13 18
31 29 27 25 24 24 25 26 26 25 25 18 6 3 3 3 3 4 4 9 11 14 12 12 9 12 8 8 8 3 12 8 8 8 10 5 7 7 9 7 3 7 11 12 11 8 11
24 24 25 23 23 23 24 25 25 26 26 17 4 2 7 3 1 1 9 5 15 8 3 6 5 11 13 9 13 11 6 1 7 10 5 1 4 6 11 13 13 15 18 20 19 18 16
20 21 21 23 23 21 20 21 24 27 25 12 8 3 3 7 14 6 4 6 12 12 10 12 9 12 8 8 7 3 13 12 6 11 9 9 4 3 6 10 12 17 23 23 22 22 21
19 19 19 19 20 20 22 22 25 27 18 8 6 3 3 2 8 8 6 6 5 9 4 8 8 5 12 4 9 4 10 6 8 11 13 10 6 7 15 11 10 14 19 22 21 20 19
20 19 18 18 19 17 18 19 20 23 11 7 6 4 5 5 7 10 12 11 12 8 6 4 11 4 4 2 6 4 2 2 4 5 7 6 8 6 10 8 12 15 19 19 21 21 20
18 17 18 18 18 16 14 15 18 21 12 10 11 1 3 3 11 6 8 12 16 16 13 10 5 10 11 7 3 2 2 3 8 14 14 12 10 6 5 8 13 23 17 14 16 17 18
15 14 14 14 14 14 14 14 15 23 14 8 8 7 2 1 3 9 13 14 11 9 6 12 11 10 8 4 2 6 6 7 6 6 15 17 13 10 10 12 9 17 13 16 15 13 17
14 13 13 14 13 13 13 13 15 16 16 6 6 9 3 4 6 6 7 12 14 11 8 11 9 5 5 3 5 5 8 9 9 8 8 8 10 14 12 11 11 21 23 26 14 9 14
14 13 14 13 12 12 13 13 14 16 14 8 11 12 7 3 3 1 2 7 7 11 6 11 6 6 5 6 5 5 6 6 9 11 15 13 11 9 11 13 16 9 16 16 10 13 18
14 13 13 12 12 13 13 14 15 17 16 12 7 11 11 4 5 4 3 6 6 5 6 18 8 7 8 5 6 5 7 7 11 11 14 15 12 10 13 10 12 19 22 12 11 21 20
Wind_Direction
240 242 240 240 240 238 237 236 234 234 235 235 236 238 240 243 246 250 255 261 267 274 282 291 299 300 308 270 256 301 297 291 284 292 283 290 293 300 281 277 283 272 270 261 266 269 265
237 238 245 240 238 239 239 237 236 233 234 234 234 234 238 241 244 247 250 256 261 267 275 285 296 299 307 268 271 269 279 278 276 262 271 272 288 295 301 278 273 288 292 289 288 282 283
238 237 240 242 235 237 237 237 235 235 234 234 233 232 234 236 238 239 243 248 254 261 270 281 294 306 281 254 263 253 266 275 255 260 266 265 282 289 289 302 273 306 292 279 266 263 260
238 239 238 240 238 237 236 235 234 233 232 232 231 232 232 233 234 233 235 241 250 262 271 280 294 295 270 283 282 260 261 263 255 260 256 265 268 277 271 277 287 285 274 271 268 260 253
242 237 238 238 238 237 242 234 233 231 229 229 228 227 228 230 232 230 233 241 250 264 270 278 293 292 279 302 256 266 255 250 255 249 248 250 252 251 259 262 270 243 261 272 280 278 260
240 239 237 236 238 237 237 238 231 229 226 225 225 224 223 224 222 227 233 243 252 258 256 274 272 277 257 254 266 234 237 244 224 224 225 226 221 239 218 237 246 259 253 255 263 261 265
240 239 236 235 233 234 233 239 235 218 231 224 221 219 221 219 221 223 227 234 233 230 216 221 214 224 267 209 258 244 223 201 198 209 218 196 212 232 237 235 246 263 273 281 288 299 309
237 236 233 232 230 230 231 232 231 224 227 226 220 212 216 218 218 221 222 223 218 173 233 235 241 237 253 268 265 246 197 221 204 228 223 241 231 248 255 253 261 265 275 283 290 282 278
237 234 230 227 227 227 225 228 229 229 221 220 220 220 220 221 223 221 231 226 219 218 274 257 240 233 235 241 250 251 232 227 251 234 240 242 251 227 245 253 263 261 272 279 281 290 291
235 232 227 226 225 226 226 222 226 223 222 219 216 219 214 216 219 220 222 224 209 158 275 260 222 237 218 221 249 240 230 231 238 251 260 256 262 260 269 259 262 260 279 283 291 298 284
230 231 227 225 224 222 224 221 221 216 223 215 214 214 216 211 212 196 207 209 197 152 240 183 168 154 186 184 138 185 207 224 241 246 244 256 245 257 263 265 272 275 276 281 295 289 293
223 226 224 223 224 219 219 218 220 214 218 218 207 215 217 210 207 210 191 176 144 97 238 159 142 186 166 198 215 142 173 204 239 243 255 263 268 270 282 271 306 306 289 266 270 266 264
217 218 220 221 221 224 219 214 214 213 210 212 208 211 210 179 169 170 165 146 123 185 193 165 171 173 194 185 204 206 177 180 183 181 232 245 245 251 242 231 240 238 268 262 264 229 248
211 215 219 225 223 220 209 208 208 204 207 206 202 186 175 153 168 163 154 118 204 206 204 39 174 175 204 176 205 198 217 207 216 236 268 259 248 223 225 235 233 223 227 225 255 266 289
208 214 220 218 210 194 196 191 189 190 185 179 171 166 171 173 184 174 157 190 199 224 207 176 175 191 211 211 203 195 213 219 221 209 229 237 252 118 243 309 224 229 248 252 259 293 303
209 212 229 219 195 183 187 177 181 175 168 166 166 166 165 162 171 168 175 208 221 229 299 197 202 210 212 206 191 198 190 209 199 262 231 260 263 220 135 20 256 234 337 221 217 228 240
190 193 206 174 192 165 182 169 164 166 167 170 170 161 177 163 165 190 186 209 227 200 228 260 209 218 230 207 203 216 214 157 188 187 229 232 227 212 159 187 240 206 222 220 236 222 243
153 132 165 144 146 165 160 137 147 144 181 175 163 96 174 177 164 75 194 201 218 176 204 252 301 283 236 238 217 217 219 146 177 162 202 76 303 231 219 181 76 178 200 239 233 227 225
142 160 145 138 139 140 145 153 167 179 190 183 131 89 149 169 181 195 220 220 234 205 209 211 222 250 243 239 221 225 109 149 169 204 37 148 236 242 249 264 207 222 256 321 263 240 254
128 131 134 138 145 146 156 159 163 167 176 184 110 119 87 107 105 136 156 198 187 227 233 200 221 254 251 240 230 205 123 151 162 94 74 3 262 268 260 265 30 296 291 284 285 289 286
131 133 139 147 155 162 168 171 173 173 173 168 139 192 159 154 212 201 161 189 187 173 256 223 218 243 219 219 233 221 194 141 183 126 137 241 276 301 278 287 304 292 276 266 259 265 257
123 130 139 148 154 159 165 170 175 177 166 157 143 168 146 160 147 185 182 185 207 194 179 201 192 210 230 237 256 289 254 179 181 155 200 212 223 201 266 263 263 263 268 272 273 275 280
119 124 129 136 144 152 161 165 170 174 169 160 151 170 207 173 176 178 170 159 163 173 295 172 202 243 232 277 235 89 42 164 242 199 215 200 206 237 262 253 247 254 253 258 269 270 267
121 120 123 130 138 145 154 163 161 162 138 140 145 186 201 197 189 195 182 147 154 148 147 150 144 157 117 156 76 40 342 257 250 247 273 272 226 247 271 282 254 256 266 270 273 274 276
122 122 124 125 133 140 141 151 161 160 146 144 169 162 183 249 192 126 168 162 163 170 163 149 192 163 163 129 61 14 268 274 248 235 229 226 238 232 242 239 271 279 276 291 294 293 288
128 129 125 123 125 133 136 146 157 166 144 130 154 98 35 343 130 180 168 176 153 153 137 142 112 129 129 113 171 204 211 216 206 201 212 222 218 228 240 256 253 261 284 295 309 289 297
125 130 130 128 133 139 139 143 150 160 175 151 159 138 64 48 54 166 162 168 162 155 156 163 160 151 172 162 191 220 238 267 238 218 252 234 206 220 233 247 266 273 282 275 275 299 340
140 136 130 130 141 145 145 144 143 146 144 128 152 131 120 106 164 93 101 187 178 196 172 154 146 191 171 197 209 212 234 244 255 251 254 238 229 235 230 247 255 256 268 267 350 345 320
161 157 147 140 139 147 145 142 140 137 121 109 114 153 112 105 114 157 179 186 177 215 237 170 182 173 181 211 223 238 243 249 255 252 238 246 257 259 249 254 246 263 292 309 279 306 322
Height
1455 1457 1462 1465 1470 1474 1478 1482 1486 1490 1494 1498 1501 1505 1508 1511 1513 1515 1518 1519 1520 1520 1520 1520 1519 1518 1517 1517 1510 1510 1508 1507 1508 1509 1510 1509 1509 1505 1501 1496 1492 1492 1491 1489 1486 1483 1481
1444 1450 1453 1457 1461 1467 1471 1475 1480 1483 1488 1492 1496 1499 1504 1508 1510 1512 1514 1516 1517 1517 1517 1518 1517 1517 1517 1513 1507 1508 1508 1506 1506 1508 1508 1508 1508 1506 1502 1498 1494 1489 1486 1483 1481 1478 1477
1436 1440 1445 1449 1453 1458 1464 1469 1473 1478 1482 1487 1490 1493 1499 1503 1506 1507 1510 1513 1514 1514 1515 1515 1515 1514 1512 1504 1503 1504 1506 1503 1505 1506 1506 1506 1507 1507 1503 1497 1492 1489 1486 1481 1478 1475 1471
1426 1431 1435 1440 1445 1449 1455 1461 1466 1471 1476 1482 1485 1489 1494 1499 1503 1503 1506 1509 1510 1512 1512 1512 1511 1511 1502 1500 1498 1496 1499 1500 1501 1503 1503 1505 1506 1505 1503 1500 1493 1490 1485 1485 1469 1465 1461
1417 1421 1426 1431 1436 1441 1446 1452 1459 1463 1470 1475 1479 1483 1489 1494 1500 1501 1503 1506 1506 1509 1509 1510 1509 1508 1498 1493 1492 1490 1492 1494 1498 1499 1501 1502 1504 1502 1502 1499 1498 1490 1490 1480 1466 1455 1453
1407 1413 1418 1422 1427 1433 1439 1443 1449 1456 1461 1467 1472 1478 1483 1489 1493 1497 1500 1503 1503 1505 1506 1507 1506 1512 1494 1489 1491 1491 1491 1491 1494 1495 1499 1498 1499 1496 1494 1497 1494 1484 1473 1464 1461 1453 1449
1397 1404 1409 1414 1419 1424 1430 1435 1440 1447 1453 1460 1465 1471 1478 1484 1488 1491 1497 1499 1503 1502 1501 1496 1493 1492 1488 1489 1488 1490 1490 1492 1491 1493 1494 1491 1493 1492 1486 1482 1480 1477 1474 1470 1460 1451 1451
1387 1394 1400 1406 1410 1415 1422 1427 1433 1439 1445 1451 1457 1463 1471 1476 1481 1485 1490 1491 1492 1491 1489 1488 1485 1485 1484 1488 1488 1486 1487 1492 1488 1487 1486 1487 1485 1480 1478 1476 1473 1469 1470 1470 1462 1457 1456
1378 1384 1390 1396 1401 1408 1414 1419 1425 1432 1437 1444 1451 1457 1464 1471 1475 1480 1483 1486 1488 1490 1487 1480 1476 1473 1479 1484 1482 1482 1483 1485 1484 1481 1480 1478 1470 1467 1470 1475 1474 1470 1474 1473 1471 1461 1454
1368 1375 1381 1387 1393 1399 1405 1410 1416 1424 1431 1437 1443 1451 1457 1464 1473 1474 1479 1483 1485 1488 1491 1471 1460 1459 1468 1476 1472 1474 1477 1479 1481 1480 1477 1469 1469 1467 1469 1472 1473 1475 1466 1467 1466 1468 1470
1360 1366 1373 1378 1384 1390 1394 1402 1407 1415 1423 1429 1435 1443 1452 1456 1460 1465 1469 1481 1483 1486 1483 1445 1452 1457 1458 1466 1463 1468 1471 1474 1475 1474 1475 1469 1467 1468 1469 1471 1468 1469 1467 1468 1469 1473 1469
1351 1358 1365 1371 1376 1382 1386 1393 1400 1406 1414 1420 1428 1438 1446 1450 1454 1460 1466 1479 1481 1489 1475 1442 1450 1456 1457 1461 1461 1463 1467 1470 1471 1473 1471 1466 1466 1467 1466 1467 1470 1472 1472 1470 1471 1472 1478
1345 1351 1357 1363 1370 1375 1379 1386 1393 1400 1407 1416 1423 1431 1438 1442 1443 1457 1465 1476 1482 1472 1437 1438 1446 1449 1453 1455 1458 1459 1460 1463 1465 1478 1474 1467 1463 1462 1464 1469 1471 1474 1478 1488 1492 1489 1483
1338 1345 1352 1356 1363 1367 1373 1379 1387 1394 1402 1409 1417 1424 1429 1437 1442 1454 1461 1471 1468 1443 1431 1428 1432 1441 1450 1445 1451 1452 1453 1458 1460 1456 1457 1461 1459 1450 1452 1457 1465 1467 1473 1483 1487 1486 1472
1332 1339 1346 1351 1357 1360 1368 1375 1382 1390 1397 1405 1413 1418 1427 1435 1443 1448 1453 1461 1448 1434 1429 1430 1431 1442 1444 1440 1445 1448 1451 1451 1451 1454 1464 1458 1453 1446 1452 1453 1456 1465 1472 1466 1475 1476 1491
1326 1335 1340 1346 1351 1359 1364 1371 1380 1388 1397 1406 1413 1416 1424 1430 1436 1442 1446 1446 1435 1427 1428 1423 1432 1434 1435 1436 1448 1445 1446 1443 1447 1455 1455 1459 1465 1450 1455 1458 1457 1458 1463 1474 1477 1486 1484
1324 1333 1338 1338 1352 1358 1366 1368 1378 1386 1397 1405 1415 1419 1421 1424 1430 1434 1436 1437 1428 1426 1429 1426 1424 1427 1428 1430 1436 1438 1436 1442 1449 1456 1459 1459 1460 1453 1453 1463 1460 1460 1465 1470 1468 1473 1478
1321 1332 1339 1343 1346 1358 1368 1368 1377 1386 1399 1408 1412 1416 1421 1424 1429 1428 1431 1429 1429 1431 1434 1433 1435 1431 1428 1428 1428 1433 1433 1447 1452 1452 1458 1457 1459 1459 1455 1452 1458 1462 1469 1471 1486 1474 1470
1327 1337 1343 1348 1356 1363 1369 1378 1387 1392 1399 1406 1412 1419 1422 1424 1428 1431 1432 1429 1429 1429 1435 1437 1435 1434 1429 1430 1434 1430 1442 1459 1460 1459 1460 1460 1467 1472 1464 1457 1457 1463 1464 1467 1462 1463 1464
1336 1344 1350 1356 1362 1369 1377 1382 1389 1393 1400 1406 1412 1418 1424 1426 1427 1430 1434 1430 1430 1430 1432 1433 1435 1435 1434 1435 1432 1438 1447 1458 1460 1460 1465 1469 1466 1467 1469 1460 1470 1473 1470 1469 1472 1473 1464
1346 1351 1357 1363 1367 1374 1380 1385 1390 1394 1400 1407 1413 1416 1419 1425 1428 1431 1432 1434 1428 1430 1434 1433 1437 1440 1436 1442 1439 1440 1448 1464 1460 1464 1467 1473 1478 1477 1473 1471 1472 1473 1469 1464 1465 1464 1470
1351 1356 1362 1369 1372 1376 1382 1385 1389 1397 1403 1407 1413 1414 1413 1418 1425 1430 1430 1433 1435 1431 1433 1433 1438 1440 1439 1442 1445 1452 1447 1452 1458 1462 1468 1471 1478 1484 1481 1478 1477 1475 1464 1461 1460 1458 1456
1357 1361 1366 1370 1375 1380 1385 1391 1395 1399 1403 1404 1410 1412 1411 1415 1419 1429 1428 1432 1436 1437 1442 1435 1439 1443 1446 1451 1452 1454 1457 1461 1461 1466 1468 1467 1473 1476 1473 1471 1470 1469 1459 1457 1454 1453 1452
1364 1367 1370 1374 1378 1382 1387 1391 1392 1396 1401 1406 1410 1416 1418 1418 1421 1422 1421 1429 1437 1440 1443 1440 1443 1447 1459 1460 1459 1461 1462 1462 1462 1462 1465 1468 1469 1473 1472 1475 1482 1454 1448 1449 1448 1444 1442
1370 1373 1376 1377 1381 1383 1386 1390 1394 1401 1407 1412 1415 1417 1419 1417 1415 1422 1427 1430 1438 1443 1447 1447 1450 1455 1456 1459 1465 1470 1469 1466 1462 1460 1462 1466 1469 1473 1475 1467 1458 1448 1445 1447 1445 1443 1439
1375 1377 1378 1380 1383 1387 1390 1395 1399 1404 1409 1412 1415 1417 1418 1416 1416 1420 1424 1427 1432 1433 1444 1448 1455 1457 1456 1462 1467 1467 1462 1455 1450 1447 1451 1458 1462 1468 1465 1468 1467 1440 1444 1442 1440 1441 1438
1380 1382 1384 1385 1389 1394 1396 1399 1404 1408 1413 1416 1418 1419 1421 1422 1423 1424 1425 1427 1432 1435 1445 1449 1458 1457 1458 1460 1464 1463 1459 1449 1448 1453 1454 1452 1455 1460 1458 1463 1453 1439 1445 1443 1446 1444 1440
1383 1387 1388 1391 1394 1397 1400 1404 1407 1411 1415 1417 1419 1421 1424 1427 1428 1428 1430 1431 1432 1435 1441 1446 1454 1455 1460 1461 1460 1456 1455 1448 1444 1446 1446 1448 1452 1451 1454 1460 1456 1440 1439 1441 1440 1439 1443
1387 1390 1392 1395 1398 1401 1404 1408 1411 1414 1417 1419 1421 1423 1425 1427 1430 1431 1432 1432 1435 1438 1440 1441 1445 1447 1452 1454 1451 1448 1448 1442 1442 1443 1441 1445 1443 1442 1443 1440 1438 1437 1434 1435 1441 1442 1437